User: anonymous   Login
Location: Unspecified
(0.0000°N, 0.0000°E)
Time: 03:15:53
(UTC+00:00)
Language:

XW-2F - Orbit

View from above orbital plane
View from above orbital plane
View from above satellite
View from above satellite

Ground track
Ground track

The orbit data is extracted from the following two-line orbital elements,

1 40910U 15049M   18172.83798066  .00000979  00000-0  53486-4 0  9994
2 40910  97.4569 177.2637 0015457  13.9274 346.2383 15.16556200152151
Epoch (UTC): 21 June 2018 20:06:41
Eccentricity: 0.0015457
inclination: 97.4569°
perigee height: 505 km
apogee height: 527 km
right ascension of ascending node: 177.2637°
argument of perigee: 13.9274°
revolutions per day: 15.16556200
mean anomaly at epoch: 346.2383°
orbit number at epoch: 15215

The dashed part of the orbit path shows where the satellite is in the earth's shadow,  

DLR